This demonstration page uses our WeatherBlox Daily Observations layout. Learn more.

Hourly Observations for October 31, 2016

Temp ( °F °C ) Dew Point ( °F °C ) Humidity (%) Winds ( mph kmh ) Pressure ( in mb ) Visibility ( mi km ) Precip ( " mm )
12:15 am 00:15 Clear 48 8.8 44 6.5 86 86 S 10 17 30.03 1017 10 16.09344 0 0
12:35 am 00:35 Clear 47 8.5 44 6.6 88 88 S 12 19 30.03 1017 10 16.09344 0 0
12:55 am 00:55 Clear 47 8.5 44 6.8 89 89 S 10 17 30 1016 10 16.09344 0 0
1:15 am 01:15 Clear 47 8.5 44 6.8 89 89 S 14 22 30 1016 10 16.09344 0 0
1:35 am 01:35 Clear 47 8.3 44 6.8 90 90 S 9 15 30 1016 10 16.09344 0 0
1:55 am 01:55 Clear 47 8.4 45 7 91 91 S 9 15 30 1016 10 16.09344 0 0
2:15 am 02:15 Clear 47 8.5 45 7.1 91 91 S 8 13 29.97 1015 10 16.09344 0 0
2:35 am 02:35 Clear 47 8.2 45 7 92 92 S 10 17 29.97 1015 10 16.09344 0 0
2:55 am 02:55 Clear 47 8.3 45 7.1 92 92 S 14 22 29.91 1013 10 16.09344 0 0
3:15 am 03:15 Clear 47 8.3 45 7.1 92 92 S 15 24 29.91 1013 10 16.09344 0 0
3:35 am 03:35 Clear 47 8.2 45 7 92 92 SSE 12 19 29.88 1012 10 16.09344 0 0
3:55 am 03:55 Clear 46 8 45 7 93 93 SSE 9 15 29.91 1013 10 16.09344 0 0
4:15 am 04:15 Clear 47 8.2 45 7.1 93 93 SSE 12 19 29.85 1011 10 16.09344 0 0
4:35 am 04:35 Clear 47 8.5 46 7.5 94 94 SSE 12 19 29.85 1011 7 11.265408 0 0
4:55 am 04:55 Clear 48 8.7 46 7.7 94 94 SSE 12 19 29.83 1010 7 11.265408 0 0
5:15 am 05:15 Clear 48 9.1 47 8.1 94 94 S 13 20 29.83 1010 10 16.09344 0 0
5:35 am 05:35 Partly Cloudy 49 9.2 47 8.2 94 94 S 13 20 29.8 1009 7 11.265408 0 0
5:55 am 05:55 Partly Cloudy 49 9.2 47 8.3 94 94 S 14 22 29.8 1009 7 11.265408 0 0
6:15 am 06:15 Clear 49 9.3 47 8.5 95 95 S 15 24 29.8 1009 7 11.265408 0 0
6:35 am 06:35 Partly Cloudy 49 9.4 47 8.5 94 94 S 17 28 29.8 1009 7 11.265408 0 0
6:55 am 06:55 Cloudy with Mist and Fog 49 9.7 48 8.9 95 95 S 15 24 29.8 1009 5 8.04672 0 0
7:15 am 07:15 Cloudy 50 10 49 9.2 95 95 S 14 22 29.8 1009 7 11.265408 0 0
7:35 am 07:35 Cloudy with Mist and Fog 50 10 49 9.2 95 95 S 15 24 29.8 1009 5 8.04672 0 0
7:55 am 07:55 Partly Cloudy 50 10.1 49 9.3 95 95 S 15 24 29.8 1009 7 11.265408 0 0
8:15 am 08:15 Mostly Cloudy with Mist and Fog 50 10.2 49 9.3 94 94 S 14 22 29.74 1007 5 8.04672 0 0
8:35 am 08:35 Cloudy with Mist and Fog 51 10.5 49 9.6 94 94 S 17 28 29.77 1008 4 6.437376 0 0
8:55 am 08:55 Cloudy with Mist and Fog 51 10.6 49 9.7 94 94 S 15 24 29.74 1007 4 6.437376 0 0
9:15 am 09:15 Cloudy with Mist and Fog 51 10.8 50 10 95 95 S 15 24 29.74 1007 4 6.437376 0 0
9:35 am 09:35 Mostly Cloudy with Mist and Fog 52 11.1 50 10.1 94 94 S 13 20 29.74 1007 5 8.04672 0 0
9:55 am 09:55 Partly Cloudy 53 11.7 51 10.5 92 92 S 16 26 29.74 1007 7 11.265408 0 0
10:15 am 10:15 Sunny 55 12.6 51 10.7 88 88 S 15 24 29.74 1007 7 11.265408 0 0
10:35 am 10:35 Sunny 55 13 51 10.7 86 86 S 14 22 29.74 1007 10 16.09344 0 0
10:55 am 10:55 Sunny 57 13.8 51 10.7 82 82 S 17 28 29.71 1006 10 16.09344 0 0
11:15 am 11:15 Sunny 58 14.6 51 10.6 77 77 S 15 24 29.68 1005 10 16.09344 0 0
11:35 am 11:35 Sunny 60 15.4 51 10.5 73 73 S 12 19 29.68 1005 10 16.09344 0 0
11:55 am 11:55 Sunny 61 16.2 50 10.2 68 68 SSW 15 24 29.68 1005 10 16.09344 0 0
12:15 pm 12:15 Sunny 64 17.5 50 9.9 61 61 SSW 14 22 29.65 1004 10 16.09344 0 0
12:35 pm 12:35 Sunny 65 18.3 50 10 59 59 S 14 22 29.65 1004 10 16.09344 0 0
12:55 pm 12:55 Sunny 66 19 49 9.7 55 55 SSW 12 19 29.65 1004 10 16.09344 0 0
1:15 pm 13:15 Sunny 68 20.1 49 9.7 51 51 SSW 14 22 29.59 1002 10 16.09344 0 0
1:35 pm 13:35 Sunny 70 20.9 49 9.6 49 49 S 8 13 29.59 1002 10 16.09344 0 0
1:55 pm 13:55 Sunny 71 21.6 49 9.3 46 46 SSW 9 15 29.59 1002 10 16.09344 0 0
2:15 pm 14:15 Sunny 72 22.4 48 9 43 43 S 7 11 29.56 1001 10 16.09344 0 0
2:35 pm 14:35 Sunny 74 23.2 48 8.7 40 40 S 8 13 29.56 1001 10 16.09344 0 0
2:55 pm 14:55 Sunny 73 22.8 47 8.3 40 40 S 9 15 29.56 1001 10 16.09344 0 0
3:15 pm 15:15 Sunny 75 24.1 46 7.7 35 35 SW 9 15 29.53 1000 10 16.09344 0 0
3:35 pm 15:35 Sunny 77 24.8 46 7.5 33 33 WSW 6 9 29.53 1000 10 16.09344 0 0
3:55 pm 15:55 Sunny 77 25.2 45 7.1 32 32 W 10 17 29.53 1000 10 16.09344 0 0
4:15 pm 16:15 Sunny 78 25.5 45 7.2 31 31 W 6 9 29.53 1000 10 16.09344 0 0
4:35 pm 16:35 Sunny 78 25.6 44 6.4 29 29 W 6 9 29.53 1000 10 16.09344 0 0
4:55 pm 16:55 Sunny 78 25.8 44 6.6 29 29 SW 5 7 29.56 1001 10 16.09344 0 0
5:15 pm 17:15 Sunny 78 25.3 44 6.4 30 30 Calm 29.56 1001 10 16.09344 0 0
5:35 pm 17:35 Sunny 77 25.1 44 6.4 30 30 Calm 29.56 1001 10 16.09344 0 0
5:55 pm 17:55 Sunny 76 24.7 43 6.1 30 30 NW 6 9 29.56 1001 10 16.09344 0 0
6:15 pm 18:15 Sunny 71 21.8 42 5.7 35 35 NNW 5 7 29.59 1002 10 16.09344 0 0
6:35 pm 18:35 Clear 68 19.9 43 5.9 40 40 NNW 5 7 29.65 1004 10 16.09344 0 0
7:15 pm 19:15 Clear 62 16.5 43 5.9 50 50 NNE 5 7 29.68 1005 10 16.09344 0 0
7:35 pm 19:35 Clear 60 15.6 42 5.6 52 52 NNE 3 6 29.68 1005 10 16.09344 0 0
7:55 pm 19:55 Clear 59 15 42 5.4 53 53 Calm 29.71 1006 7 11.265408 0 0
8:15 pm 20:15 Clear 55 13 42 5.5 61 61 NW 5 7 29.74 1007 10 16.09344 0 0
8:35 pm 20:35 Clear 58 14.5 43 6 57 57 NW 9 15 29.71 1006 10 16.09344 0 0
8:55 pm 20:55 Clear 59 15 44 6.5 57 57 NNW 7 11 29.71 1006 10 16.09344 0 0
9:15 pm 21:15 Clear 59 14.9 44 6.5 57 57 NNW 6 9 29.74 1007 10 16.09344 0 0
9:35 pm 21:35 Clear 56 13.5 43 6.2 62 62 NNW 5 7 29.77 1008 10 16.09344 0 0
9:55 pm 21:55 Clear 56 13.4 43 6.1 62 62 WNW 5 7 29.77 1008 10 16.09344 0 0
10:15 pm 22:15 Clear 54 12.4 43 5.9 65 65 WNW 6 9 29.77 1008 10 16.09344 0 0
10:35 pm 22:35 Clear 54 12.1 42 5.4 64 64 WNW 6 9 29.77 1008 10 16.09344 0 0
10:55 pm 22:55 Clear 55 12.8 40 4.2 56 56 NW 8 13 29.77 1008 10 16.09344 0 0
11:15 pm 23:15 Clear 56 13.2 37 2.9 50 50 NW 10 17 29.77 1008 10 16.09344 0 0
11:35 pm 23:35 Clear 53 11.7 37 2.5 54 54 NW 9 15 29.77 1008 10 16.09344 0 0
11:55 pm 23:55 Clear 56 13.4 33 0.8 42 42 NW 9 15 29.77 1008 10 16.09344 0 0

Powered by AerisWeather